| time (UTC) | temp F | wind direction | speed MPH | gust MPH | rain 1hr in | rain 24hr in | rain mn in | humidity % | barometer mb |
| 20260904161532 | 54 | 107 | 0.0 | 2.0 | 0.00 | 0.32 | 0.01 | 79 | 1013.6 |
| 20260904160027 | 53 | 110 | 1.0 | 3.0 | 0.00 | 0.32 | 0.01 | 80 | 1013.6 |
| 20260904154525 | 52 | 119 | 0.0 | 3.0 | 0.00 | 0.32 | 0.01 | 83 | 1013.5 |
| 20260904153025 | 52 | 142 | 0.0 | 2.0 | 0.00 | 0.32 | 0.01 | 83 | 1013.6 |
| 20260904151526 | 52 | 172 | 0.0 | 0.0 | 0.00 | 0.32 | 0.01 | 84 | 1013.5 |
| 20260904150033 | 52 | 172 | 0.0 | 1.0 | 0.01 | 0.32 | 0.01 | 84 | 1013.5 |
| 20260904144523 | 53 | 110 | 0.0 | 1.0 | 0.01 | 0.32 | 0.01 | 84 | 1013.4 |
| 20260904143021 | 53 | 110 | 0.0 | 1.0 | 0.01 | 0.32 | 0.01 | 85 | 1013.3 |
| 20260904141517 | 52 | 110 | 0.0 | 1.0 | 0.01 | 0.32 | 0.01 | 85 | 1013.0 |
| 20260904140016 | 51 | 110 | 0.0 | 1.0 | 0.00 | 0.31 | 0.00 | 85 | 1012.9 |
| 20260904134515 | 50 | 110 | 0.0 | 1.0 | 0.00 | 0.31 | 0.00 | 87 | 1012.8 |
| 20260904133013 | 50 | 110 | 0.0 | 0.0 | 0.00 | 0.31 | 0.00 | 85 | 1012.7 |
| 20260904131510 | 50 | 110 | 0.0 | 0.0 | 0.00 | 0.31 | 0.00 | 84 | 1012.3 |
| 20260904130009 | 50 | 110 | 0.0 | 1.0 | 0.00 | 0.31 | 0.00 | 85 | 1012.2 |
| 20260904124506 | 50 | 110 | 0.0 | 0.0 | 0.00 | 0.31 | 0.00 | 86 | 1012.0 |
| 20260904123005 | 50 | 110 | 0.0 | 0.0 | 0.00 | 0.31 | 0.00 | 85 | 1011.8 |
| 20260904121504 | 50 | 110 | 0.0 | 1.0 | 0.00 | 0.31 | 0.00 | 85 | 1011.6 |
| 20260904120002 | 50 | 110 | 0.0 | 0.0 | 0.00 | 0.31 | 0.00 | 86 | 1011.4 |
| 20260904114504 | 50 | 110 | 0.0 | 0.0 | 0.00 | 0.31 | 0.00 | 87 | 1011.4 |
| 20260904113200 | 51 | 110 | 0.0 | 0.0 | 0.00 | 0.31 | 0.00 | 85 | 1011.3 |
| 20260904111558 | 51 | 110 | 0.0 | 1.0 | 0.00 | 0.31 | 0.00 | 83 | 1011.2 |
| 20260904110056 | 51 | 110 | 0.0 | 1.0 | 0.00 | 0.31 | 0.00 | 83 | 1010.9 |
| 20260904104553 | 51 | 110 | 0.0 | 2.0 | 0.00 | 0.31 | 0.00 | 84 | 1010.8 |
| 20260904103051 | 51 | 110 | 0.0 | 1.0 | 0.00 | 0.31 | 0.00 | 85 | 1010.6 |
| 20260904101550 | 50 | 110 | 0.0 | 1.0 | 0.00 | 0.31 | 0.00 | 87 | 1010.5 |
| 20260904100048 | 49 | 110 | 0.0 | 0.0 | 0.00 | 0.31 | 0.00 | 90 | 1010.2 |
| 20260904094647 | 49 | 110 | 0.0 | 0.0 | 0.00 | 0.31 | 0.00 | 88 | 1010.1 |
| 20260904093053 | 49 | 110 | 0.0 | 0.0 | 0.00 | 0.31 | 0.00 | 87 | 1010.1 |
| 20260904091552 | 49 | 110 | 0.0 | 1.0 | 0.00 | 0.31 | 0.00 | 87 | 1010.1 |
| 20260904090044 | 49 | 110 | 0.0 | 0.0 | 0.00 | 0.31 | 0.00 | 90 | 1010.0 |
| 20260904084545 | 49 | 110 | 0.0 | 1.0 | 0.00 | 0.31 | 0.00 | 90 | 1010.1 |
| 20260904083042 | 49 | 110 | 0.0 | 0.0 | 0.00 | 0.31 | 0.00 | 87 | 1010.1 |
| 20260904081540 | 50 | 110 | 0.0 | 1.0 | 0.00 | 0.31 | 0.00 | 86 | 1010.1 |
| 20260904080140 | 50 | 131 | 0.0 | 1.0 | 0.00 | 0.31 | 0.00 | 88 | 1009.9 |
| 20260904074552 | 49 | 86 | 0.0 | 1.0 | 0.00 | 0.31 | 0.00 | 89 | 1009.9 |
| 20260904073035 | 49 | 86 | 0.0 | 0.0 | 0.00 | 0.31 | 0.00 | 89 | 1009.8 |
| 20260904071546 | 50 | 86 | 0.0 | 0.0 | 0.00 | 0.31 | 0.00 | 87 | 1009.7 |
| 20260904070029 | 51 | 86 | 0.0 | 1.0 | 0.00 | 0.31 | 0.00 | 84 | 1009.6 |
| 20260904064533 | 51 | 101 | 0.0 | 1.0 | 0.00 | 0.32 | 0.31 | 92 | 1009.6 |
| 20260904063038 | 52 | 113 | 0.0 | 1.0 | 0.00 | 0.32 | 0.31 | 95 | 1009.5 |
| 20260904061631 | 52 | 108 | 0.0 | 0.0 | 0.01 | 0.32 | 0.31 | 95 | 1009.5 |
| 20260904060029 | 52 | 107 | 0.0 | 1.0 | 0.01 | 0.32 | 0.31 | 95 | 1009.6 |
| 20260904054533 | 52 | 107 | 0.0 | 1.0 | 0.01 | 0.34 | 0.31 | 95 | 1009.7 |
| 20260904053026 | 53 | 107 | 0.0 | 2.0 | 0.00 | 0.33 | 0.30 | 95 | 1009.6 |
| 20260904051524 | 53 | 96 | 0.0 | 0.0 | 0.01 | 0.33 | 0.30 | 95 | 1009.8 |
| 20260904050028 | 53 | 94 | 0.0 | 1.0 | 0.06 | 0.33 | 0.30 | 95 | 1009.9 |
| 20260904044524 | 53 | 204 | 0.0 | 1.0 | 0.30 | 0.36 | 0.30 | 95 | 1009.9 |
| 20260904043124 | 53 | 142 | 0.0 | 1.0 | 0.30 | 0.36 | 0.30 | 94 | 1009.9 |
| 20260904041526 | 53 | 229 | 0.0 | 2.0 | 0.28 | 0.35 | 0.28 | 93 | 1010.0 |
| 20260904040023 | 55 | 44 | 0.0 | 4.0 | 0.24 | 0.30 | 0.24 | 88 | 1009.8 |
| 20260904034521 | 60 | 67 | 2.0 | 5.0 | 0.00 | 0.06 | 0.00 | 56 | 1009.5 |
| 20260904033021 | 60 | 84 | 0.0 | 4.0 | 0.00 | 0.06 | 0.00 | 55 | 1009.2 |
| 20260904031521 | 60 | 110 | 0.0 | 8.0 | 0.00 | 0.06 | 0.00 | 55 | 1008.9 |
| 20260904030029 | 60 | 146 | 1.0 | 3.0 | 0.00 | 0.06 | 0.00 | 55 | 1008.7 |
| 20260904024621 | 61 | 109 | 0.0 | 4.0 | 0.00 | 0.06 | 0.00 | 54 | 1008.5 |
| 20260904023019 | 61 | 98 | 2.0 | 7.0 | 0.00 | 0.06 | 0.00 | 53 | 1008.1 |
| 20260904021530 | 62 | 100 | 2.0 | 6.0 | 0.00 | 0.06 | 0.00 | 51 | 1007.9 |
| 20260904020018 | 64 | 141 | 3.0 | 9.0 | 0.00 | 0.06 | 0.00 | 49 | 1007.9 |
| 20260904014521 | 66 | 174 | 0.0 | 5.0 | 0.00 | 0.06 | 0.00 | 47 | 1007.7 |
| 20260904013017 | 67 | 67 | 0.0 | 1.0 | 0.00 | 0.06 | 0.00 | 42 | 1007.6 |
| 20260904011516 | 69 | 281 | 1.0 | 7.0 | 0.00 | 0.06 | 0.00 | 39 | 1007.5 |
| 20260904010117 | 70 | 19 | 0.0 | 6.0 | 0.00 | 0.06 | 0.00 | 36 | 1007.5 |
| 20260904004516 | 69 | 305 | 3.0 | 9.0 | 0.00 | 0.06 | 0.00 | 37 | 1007.5 |
| 20260904003019 | 70 | 328 | 1.0 | 8.0 | 0.00 | 0.06 | 0.00 | 37 | 1007.6 |
| 20260904001514 | 71 | 27 | 1.0 | 8.0 | 0.00 | 0.06 | 0.00 | 36 | 1007.7 |
| 20260904000013 | 71 | 50 | 3.0 | 7.0 | 0.00 | 0.06 | 0.00 | 35 | 1007.6 |
| 20260903234512 | 70 | 84 | 1.0 | 7.0 | 0.00 | 0.06 | 0.00 | 35 | 1007.6 |
| 20260903233009 | 70 | 293 | 2.0 | 5.0 | 0.00 | 0.06 | 0.00 | 35 | 1007.8 |
| 20260903231617 | 70 | 28 | 6.0 | 11.0 | 0.00 | 0.06 | 0.00 | 34 | 1008.0 |
| 20260903230010 | 70 | 298 | 4.0 | 10.0 | 0.00 | 0.06 | 0.00 | 36 | 1008.2 |
| 20260903224505 | 70 | 61 | 4.0 | 9.0 | 0.00 | 0.07 | 0.00 | 37 | 1008.3 |
| 20260903223003 | 70 | 326 | 4.0 | 9.0 | 0.00 | 0.07 | 0.00 | 40 | 1008.4 |
| 20260903221502 | 69 | 329 | 3.0 | 13.0 | 0.00 | 0.07 | 0.00 | 41 | 1008.4 |
| 20260903220002 | 70 | 47 | 4.0 | 10.0 | 0.00 | 0.07 | 0.00 | 39 | 1008.6 |
| 20260903214604 | 69 | 343 | 5.0 | 14.0 | 0.00 | 0.08 | 0.00 | 39 | 1008.6 |
| 20260903213057 | 69 | 1 | 3.0 | 10.0 | 0.00 | 0.08 | 0.00 | 40 | 1008.5 |
| 20260903211555 | 68 | 307 | 4.0 | 15.0 | 0.00 | 0.08 | 0.00 | 40 | 1008.6 |
| 20260903210055 | 69 | 47 | 3.0 | 12.0 | 0.00 | 0.08 | 0.00 | 42 | 1008.7 |
| 20260903204556 | 68 | 32 | 6.0 | 13.0 | 0.00 | 0.08 | 0.00 | 39 | 1008.7 |
| 20260903203054 | 68 | 30 | 8.0 | 13.0 | 0.00 | 0.08 | 0.00 | 39 | 1008.9 |
| 20260903201549 | 68 | 360 | 3.0 | 13.0 | 0.00 | 0.08 | 0.00 | 44 | 1009.0 |
| 20260903200050 | 68 | 86 | 5.0 | 12.0 | 0.00 | 0.08 | 0.00 | 43 | 1009.2 |
| 20260903194545 | 68 | 325 | 4.0 | 10.0 | 0.00 | 0.08 | 0.00 | 44 | 1009.2 |
| 20260903193044 | 67 | 47 | 6.0 | 11.0 | 0.00 | 0.08 | 0.00 | 45 | 1009.3 |
| 20260903191541 | 67 | 9 | 4.0 | 8.0 | 0.00 | 0.08 | 0.00 | 44 | 1009.3 |
| 20260903190038 | 66 | 20 | 4.0 | 12.0 | 0.00 | 0.08 | 0.00 | 45 | 1009.6 |
| 20260903184537 | 65 | 42 | 4.0 | 10.0 | 0.00 | 0.08 | 0.00 | 48 | 1009.8 |
| 20260903183036 | 65 | 309 | 2.0 | 11.0 | 0.00 | 0.08 | 0.00 | 49 | 1009.7 |
| 20260903181534 | 65 | 81 | 3.0 | 7.0 | 0.00 | 0.08 | 0.00 | 46 | 1009.8 |
| 20260903180050 | 65 | 331 | 1.0 | 12.0 | 0.00 | 0.08 | 0.00 | 51 | 1009.9 |
| 20260903174528 | 63 | 302 | 1.0 | 12.0 | 0.00 | 0.08 | 0.00 | 55 | 1010.0 |
| 20260903173024 | 61 | 84 | 2.0 | 10.0 | 0.00 | 0.08 | 0.00 | 61 | 1009.9 |
| 20260903171520 | 60 | 294 | 3.0 | 7.0 | 0.00 | 0.08 | 0.00 | 67 | 1010.1 |
| 20260903170020 | 59 | 287 | 3.0 | 5.0 | 0.00 | 0.08 | 0.00 | 67 | 1010.2 |
| 20260903164513 | 58 | 337 | 2.0 | 5.0 | 0.00 | 0.08 | 0.00 | 68 | 1010.3 |
| 20260903163008 | 58 | 269 | 1.0 | 5.0 | 0.00 | 0.08 | 0.00 | 70 | 1010.4 |